,,Stat5,,Stat1,,Stat2,,Stat3,,Stat4,,Wind1,,Wind1,
time,status,PA1M_AVG,status,PR1M_SUM,status,RH1M_AVG,status,SR1M_AVG,status,TA1M_AVG,status,W1dAve1m,status,W1sAve1m,
2002-09-04, 07:07:00,VALID,917.987,VALID,0,VALID,97.0412,VALID,104.364,VALID,18.8743,VALID,134,VALID,1.07717,
2002-09-04, 07:08:00,VALID,917.987,VALID,0,VALID,97.1035,VALID,111.768,VALID,18.8775,VALID,126,VALID,0.969141,
2002-09-04, 07:09:00,VALID,917.986,VALID,0,VALID,97.2256,VALID,130.566,VALID,18.8867,VALID,124,VALID,0.985777,
2002-09-04, 07:10:00,VALID,917.993,VALID,0,VALID,97.3045,VALID,145.458,VALID,18.9193,VALID,113,VALID,0.791992,
2002-09-04, 07:11:00,VALID,917.994,VALID,0,VALID,97.3896,VALID,162.659,VALID,18.9645,VALID,107,VALID,1.01934,
2002-09-04, 07:12:00,VALID,917.99,VALID,0,VALID,97.396,VALID,134.59,VALID,19.0062,VALID,122,VALID,0.812089,
2002-09-04, 07:13:00,VALID,917.986,VALID,0,VALID,97.3095,VALID,131.822,VALID,19.0515,VALID,128,VALID,0.934122,
2002-09-04, 07:14:00,VALID,917.98,VALID,0,VALID,96.9548,VALID,141.96,VALID,19.0671,VALID,139,VALID,1.24805,
2002-09-04, 07:15:00,VALID,917.98,VALID,0,VALID,96.7246,VALID,134.556,VALID,19.0738,VALID,135,VALID,1.18007,
2002-09-04, 07:16:00,VALID,917.996,VALID,0,VALID,96.5466,VALID,129.343,VALID,19.0676,VALID,136,VALID,1.26647,
2002-09-04, 07:17:00,VALID,918.007,VALID,0,VALID,96.572,VALID,148.26,VALID,19.0738,VALID,129,VALID,1.00042,
2002-09-04, 07:18:00,VALID,918.027,VALID,0,VALID,96.4728,VALID,180.965,VALID,19.1059,VALID,138,VALID,1.36673,
2002-09-04, 07:19:00,VALID,918.039,VALID,0,VALID,96.5339,VALID,203.43,VALID,19.1245,VALID,125,VALID,0.790064,
2002-09-04, 07:20:00,VALID,918.052,VALID,0,VALID,96.4817,VALID,226.711,VALID,19.1924,VALID,123,VALID,1.03309,
2002-09-04, 07:21:00,VALID,918.073,VALID,0,VALID,96.3228,VALID,248.243,VALID,19.2572,VALID,145,VALID,1.33509,
2002-09-04, 07:22:00,VALID,918.1,VALID,0,VALID,95.7684,VALID,260.673,VALID,19.2962,VALID,137,VALID,1.43069,
2002-09-04, 07:23:00,VALID,918.119,VALID,0,VALID,95.8688,VALID,254.577,VALID,19.3705,VALID,138,VALID,0.867405,
2002-09-04, 07:24:00,VALID,917.717,VALID,0,VALID,95.94,VALID,259.909,VALID,19.4962,VALID,126,VALID,0.872656,
2002-09-04, 07:25:00,VALID,918.152,VALID,0,VALID,95.1796,VALID,268.705,VALID,19.609,VALID,129,VALID,1.17989,
2002-09-04, 07:26:00,VALID,918.146,VALID,0,VALID,94.4039,VALID,274.648,VALID,19.6803,VALID,128,VALID,1.12541,
2002-09-04, 07:27:00,VALID,918.164,VALID,0,VALID,94.2882,VALID,284.463,VALID,19.773,VALID,151,VALID,1.01905,
2002-09-04, 07:28:00,VALID,918.175,VALID,0,VALID,93.8508,VALID,302.955,VALID,19.8766,VALID,141,VALID,0.970152,
2002-09-04, 07:29:00,VALID,918.18,VALID,0,VALID,93.2964,VALID,302.921,VALID,20.0091,VALID,141,VALID,1.20633,
2002-09-04, 07:30:00,VALID,918.187,VALID,0,VALID,92.6453,VALID,280.676,VALID,20.0638,VALID,124,VALID,1.26151,
2002-09-04, 07:31:00,VALID,918.191,VALID,0,VALID,92.2486,VALID,263.848,VALID,20.151,VALID,115,VALID,1.28758,
2002-09-04, 07:32:00,VALID,918.208,VALID,0,VALID,91.9701,VALID,247.886,VALID,20.1796,VALID,140,VALID,1.18215,
2002-09-04, 07:33:00,VALID,918.207,VALID,0,VALID,91.2643,VALID,233.334,VALID,20.2121,VALID,125,VALID,1.65825,
2002-09-04, 07:34:00,VALID,918.22,VALID,0,VALID,90.9057,VALID,267.024,VALID,20.1726,VALID,115,VALID,1.32998,
2002-09-04, 07:35:00,VALID,918.218,VALID,0,VALID,90.8574,VALID,269.69,VALID,20.185,VALID,112,VALID,1.55613,
2002-09-04, 07:36:00,VALID,918.218,VALID,0,VALID,90.5942,VALID,234.539,VALID,20.186,VALID,117,VALID,1.4182,
2002-09-04, 07:37:00,VALID,918.228,VALID,0,VALID,91.3419,VALID,224.13,VALID,20.1955,VALID,125,VALID,0.926943,
2002-09-04, 07:38:00,VALID,918.233,VALID,0,VALID,90.832,VALID,305.451,VALID,20.2437,VALID,117,VALID,1.48047,
2002-09-04, 07:39:00,VALID,918.222,VALID,0,VALID,90.3666,VALID,332.128,VALID,20.2558,VALID,124,VALID,1.28863,
2002-09-04, 07:40:00,VALID,918.238,VALID,0,VALID,90.8663,VALID,312.43,VALID,20.3331,VALID,138,VALID,0.864784,
2002-09-04, 07:41:00,VALID,918.25,VALID,0,VALID,89.8796,VALID,305.196,VALID,20.4367,VALID,148,VALID,1.17188,
2002-09-04, 07:42:00,VALID,918.247,VALID,0,VALID,89.9457,VALID,288.385,VALID,20.4944,VALID,139,VALID,0.741571,
2002-09-04, 07:43:00,VALID,918.259,VALID,0,VALID,89.6774,VALID,293.7,VALID,20.5977,VALID,124,VALID,1.09263,
2002-09-04, 07:44:00,VALID,918.28,VALID,0,VALID,88.6563,VALID,270.522,VALID,20.6465,VALID,116,VALID,1.06816,
2002-09-04, 07:45:00,VALID,918.29,VALID,0,VALID,88.0777,VALID,231.619,VALID,20.6554,VALID,117,VALID,1.36842,
2002-09-04, 07:46:00,VALID,918.307,VALID,0,VALID,88.6588,VALID,217.457,VALID,20.6521,VALID,126,VALID,0.777444,
2002-09-04, 07:47:00,VALID,918.336,VALID,0,VALID,88.3892,VALID,192.325,VALID,20.6812,VALID,121,VALID,1.17147,
2002-09-04, 07:48:00,VALID,918.347,VALID,0,VALID,87.8793,VALID,182.068,VALID,20.671,VALID,121,VALID,1.17314,
2002-09-04, 07:49:00,VALID,918.362,VALID,0,VALID,88.4223,VALID,179.623,VALID,20.7001,VALID,130,VALID,1.03083,
2002-09-04, 07:50:00,VALID,918.379,VALID,0,VALID,88.6347,VALID,179.725,VALID,20.7229,VALID,131,VALID,0.862109,
2002-09-04, 07:51:00,VALID,918.391,VALID,0,VALID,88.4541,VALID,182.595,VALID,20.7391,VALID,119,VALID,1.11643,
2002-09-04, 07:52:00,VALID,918.412,VALID,0,VALID,88.5431,VALID,189.676,VALID,20.7523,VALID,132,VALID,1.3296,
2002-09-04, 07:53:00,VALID,918.419,VALID,0,VALID,88.4376,VALID,190.253,VALID,20.6874,VALID,138,VALID,1.63936,
2002-09-04, 07:54:00,VALID,918.425,VALID,0,VALID,88.936,VALID,196.315,VALID,20.629,VALID,141,VALID,1.31893,
2002-09-04, 07:55:00,VALID,918.427,VALID,0,VALID,89.4205,VALID,189.472,VALID,20.5935,VALID,145,VALID,1.1248,
2002-09-04, 07:56:00,VALID,918.449,VALID,0,VALID,89.3569,VALID,177.789,VALID,20.5773,VALID,136,VALID,1.11443,
2002-09-04, 07:57:00,VALID,918.446,VALID,0,VALID,89.6914,VALID,169.995,VALID,20.5517,VALID,133,VALID,1.01077,
2002-09-04, 07:58:00,VALID,918.472,VALID,0,VALID,89.7715,VALID,167.499,VALID,20.5385,VALID,131,VALID,1.05088,
2002-09-04, 07:59:00,VALID,918.48,VALID,0,VALID,89.8745,VALID,165.988,VALID,20.5356,VALID,130,VALID,0.904297,
2002-09-04, 08:00:00,VALID,918.513,VALID,0,VALID,90.2305,VALID,164.765,VALID,20.5251,VALID,114,VALID,0.622852,
2002-09-04, 08:01:00,VALID,918.533,VALID,0,VALID,90.4289,VALID,164.663,VALID,20.5413,VALID,126,VALID,0.640625,
2002-09-04, 08:02:00,VALID,918.554,VALID,0,VALID,90.4378,VALID,166.989,VALID,20.5539,VALID,134,VALID,0.88898,
2002-09-04, 08:03:00,VALID,918.567,VALID,0,VALID,90.6565,VALID,170.165,VALID,20.5768,VALID,130,VALID,0.547256,
2002-09-04, 08:04:00,VALID,918.583,VALID,0,VALID,91.0049,VALID,172.304,VALID,20.6285,VALID,107,VALID,0.405048,
2002-09-04, 08:05:00,VALID,918.59,VALID,0,VALID,90.5573,VALID,172.746,VALID,20.6473,VALID,95,VALID,0.698518,
2002-09-04, 08:06:00,VALID,918.599,VALID,0,VALID,90.3768,VALID,171.421,VALID,20.67,VALID,51,VALID,0.689967,
2002-09-04, 08:07:00,VALID,918.603,VALID,0,VALID,89.8643,VALID,170.046,VALID,20.7011,VALID,57,VALID,0.974662,
2002-09-04, 08:08:00,VALID,918.601,VALID,0,VALID,90.3132,VALID,169.808,VALID,20.7105,VALID,17,VALID,0.69963,
2002-09-04, 08:09:00,VALID,918.605,VALID,0,VALID,91.0609,VALID,171.252,VALID,20.8107,VALID,72,VALID,0.465745,
2002-09-04, 08:10:00,VALID,918.607,VALID,0,VALID,90.4518,VALID,173.255,VALID,20.895,VALID,97,VALID,0.129317,
2002-09-04, 08:11:00,VALID,918.617,VALID,0,VALID,89.6341,VALID,175.021,VALID,20.9653,VALID,55,VALID,0.765419,
2002-09-04, 08:12:00,VALID,918.609,VALID,0,VALID,88.3422,VALID,177.093,VALID,20.966,VALID,80,VALID,1.0154,
2002-09-04, 08:13:00,VALID,918.619,VALID,0,VALID,89.0619,VALID,180.285,VALID,20.9628,VALID,97,VALID,0.312289,
2002-09-04, 08:14:00,VALID,918.633,VALID,0,VALID,89.0174,VALID,184.429,VALID,21.0048,VALID,70,VALID,0.595358,
2002-09-04, 08:15:00,VALID,918.643,VALID,0,VALID,88.73,VALID,190.729,VALID,20.9943,VALID,51,VALID,0.492622,
2002-09-04, 08:16:00,VALID,918.666,VALID,0,VALID,89.1382,VALID,202.717,VALID,21.0659,VALID,43,VALID,0.159455,
2002-09-04, 08:17:00,VALID,918.678,VALID,0,VALID,88.0103,VALID,213.568,VALID,21.1397,VALID,129,VALID,0.48125,
2002-09-04, 08:18:00,VALID,918.703,VALID,0,VALID,88.065,VALID,218.238,VALID,21.2175,VALID,145,VALID,0.107113,
2002-09-04, 08:19:00,VALID,918.703,VALID,0,VALID,88.126,VALID,223.587,VALID,21.3013,VALID,117,VALID,0.431696,
2002-09-04, 08:20:00,VALID,918.698,VALID,0,VALID,88.168,VALID,229.36,VALID,21.3433,VALID,69,VALID,0.508203,
2002-09-04, 08:21:00,VALID,918.719,VALID,0,VALID,87.8869,VALID,235.218,VALID,21.3786,VALID,91,VALID,0.258429,
2002-09-04, 08:22:00,VALID,918.711,VALID,0,VALID,88.0802,VALID,240.737,VALID,21.4456,VALID,131,VALID,0.104367,
2002-09-04, 08:23:00,VALID,918.72,VALID,0,VALID,87.4482,VALID,245.016,VALID,21.5517,VALID,155,VALID,0.39984,
2002-09-04, 08:24:00,VALID,918.735,VALID,0,VALID,86.2796,VALID,247.614,VALID,21.6295,VALID,152,VALID,0.394848,
2002-09-04, 08:25:00,VALID,918.729,VALID,0,VALID,86.4907,VALID,248.99,VALID,21.6971,VALID,149,VALID,0.633657,
2002-09-04, 08:26:00,VALID,918.732,VALID,0,VALID,85.7138,VALID,250.28,VALID,21.738,VALID,115,VALID,0.85918,
2002-09-04, 08:27:00,VALID,918.736,VALID,0,VALID,85.8282,VALID,252.963,VALID,21.7251,VALID,145,VALID,0.920922,
2002-09-04, 08:28:00,VALID,918.747,VALID,0,VALID,85.0169,VALID,258.635,VALID,21.6968,VALID,146,VALID,1.0815,
2002-09-04, 08:29:00,VALID,918.754,VALID,0,VALID,85.5243,VALID,267.737,VALID,21.6193,VALID,144,VALID,0.6856,
2002-09-04, 08:30:00,VALID,918.758,VALID,0,VALID,86.6929,VALID,276.346,VALID,21.6029,VALID,164,VALID,0.620404,
2002-09-04, 08:31:00,VALID,918.765,VALID,0,VALID,87.2995,VALID,286.331,VALID,21.6451,VALID,128,VALID,0.58113,
2002-09-04, 08:32:00,VALID,918.773,VALID,0,VALID,86.9218,VALID,295.432,VALID,21.7014,VALID,122,VALID,0.939338,
2002-09-04, 08:33:00,VALID,918.786,VALID,0,VALID,87.1075,VALID,302.836,VALID,21.723,VALID,133,VALID,1.03273,
2002-09-04, 08:34:00,VALID,918.796,VALID,0,VALID,86.6014,VALID,310.511,VALID,21.7302,VALID,148,VALID,0.837941,
2002-09-04, 08:35:00,VALID,918.802,VALID,0,VALID,87.0884,VALID,320.768,VALID,21.769,VALID,153,VALID,0.882161,
2002-09-04, 08:36:00,VALID,918.822,VALID,0,VALID,86.2949,VALID,335.253,VALID,21.7879,VALID,141,VALID,0.93457,
2002-09-04, 08:37:00,VALID,918.83,VALID,0,VALID,86.8887,VALID,329.581,VALID,21.8115,VALID,145,VALID,0.767064,
2002-09-04, 08:38:00,VALID,918.832,VALID,0,VALID,86.9739,VALID,319.019,VALID,21.8632,VALID,159,VALID,1.03762,
2002-09-04, 08:39:00,VALID,918.83,VALID,0,VALID,86.2148,VALID,318.594,VALID,21.9122,VALID,132,VALID,0.959413,
2002-09-04, 08:40:00,VALID,918.829,VALID,0,VALID,86.6192,VALID,319.596,VALID,21.951,VALID,149,VALID,0.977965,
2002-09-04, 08:41:00,VALID,918.842,VALID,0,VALID,84.1103,VALID,319.936,VALID,21.9475,VALID,149,VALID,1.61458,
2002-09-04, 08:42:00,VALID,918.836,VALID,0,VALID,85.3336,VALID,318.425,VALID,21.8761,VALID,145,VALID,1.30798,
2002-09-04, 08:43:00,VALID,918.853,VALID,0,VALID,85.0322,VALID,315.606,VALID,21.8018,VALID,138,VALID,1.68877,
2002-09-04, 08:44:00,VALID,918.88,VALID,0,VALID,85.902,VALID,311.293,VALID,21.7114,VALID,145,VALID,1.58224,
2002-09-04, 08:45:00,VALID,918.902,VALID,0,VALID,87.2054,VALID,306.657,VALID,21.6793,VALID,140,VALID,0.992788,
2002-09-04, 08:46:00,VALID,918.929,VALID,0,VALID,85.2776,VALID,302.564,VALID,21.6632,VALID,144,VALID,1.75411,
2002-09-04, 08:47:00,VALID,918.962,VALID,0,VALID,85.724,VALID,299.406,VALID,21.6209,VALID,149,VALID,1.33059,
2002-09-04, 08:48:00,VALID,918.983,VALID,0,VALID,86.1042,VALID,296.248,VALID,21.6142,VALID,145,VALID,1.57077,
2002-09-04, 08:49:00,VALID,918.996,VALID,0,VALID,86.6649,VALID,294.023,VALID,21.608,VALID,143,VALID,1.34755,
2002-09-04, 08:50:00,VALID,919.033,VALID,0,VALID,87.1113,VALID,292.495,VALID,21.6405,VALID,134,VALID,0.532858,
2002-09-04, 08:51:00,VALID,919.059,VALID,0,VALID,87.2448,VALID,291.119,VALID,21.7407,VALID,145,VALID,0.896918,
2002-09-04, 08:52:00,VALID,919.064,VALID,0,VALID,86.2631,VALID,290.321,VALID,21.811,VALID,143,VALID,0.720353,
2002-09-04, 08:53:00,VALID,919.087,VALID,0,VALID,84.9801,VALID,290.338,VALID,21.8565,VALID,150,VALID,1.29888,
2002-09-04, 08:54:00,VALID,919.091,VALID,0,VALID,84.769,VALID,292.75,VALID,21.8853,VALID,145,VALID,0.993627,
2002-09-04, 08:55:00,VALID,919.109,VALID,0,VALID,84.5655,VALID,297.419,VALID,21.9243,VALID,158,VALID,1.27746,
2002-09-04, 08:56:00,VALID,919.123,VALID,0,VALID,84.2196,VALID,303.498,VALID,21.9639,VALID,157,VALID,0.928125,
2002-09-04, 08:57:00,VALID,919.141,VALID,0,VALID,84.6647,VALID,311.904,VALID,22.0192,VALID,147,VALID,0.676809,
2002-09-04, 08:58:00,VALID,919.157,VALID,0,VALID,84.2756,VALID,321.855,VALID,22.0609,VALID,143,VALID,0.980569,
2002-09-04, 08:59:00,VALID,919.158,VALID,0,VALID,84.6609,VALID,331.347,VALID,22.0865,VALID,143,VALID,1.09335,
2002-09-04, 09:00:00,VALID,919.189,VALID,0,VALID,84.3989,VALID,339.464,VALID,22.1226,VALID,108,VALID,0.860431,
2002-09-04, 09:01:00,VALID,919.199,VALID,0,VALID,84.0035,VALID,343.03,VALID,22.1581,VALID,133,VALID,0.999367,
2002-09-04, 09:02:00,VALID,919.206,VALID,0,VALID,83.6538,VALID,340.788,VALID,22.1996,VALID,137,VALID,0.890234,
2002-09-04, 09:03:00,VALID,919.223,VALID,0,VALID,82.9493,VALID,336.832,VALID,22.2327,VALID,142,VALID,1.09013,
2002-09-04, 09:04:00,VALID,919.228,VALID,0,VALID,83.0243,VALID,330.481,VALID,22.2419,VALID,158,VALID,1.16575,
2002-09-04, 09:05:00,VALID,919.229,VALID,0,VALID,83.0091,VALID,328.868,VALID,22.2938,VALID,148,VALID,0.895059,
2002-09-04, 09:06:00,VALID,919.232,VALID,0,VALID,83.7797,VALID,316.047,VALID,22.3679,VALID,153,VALID,1.12293,
2002-09-04, 09:07:00,VALID,919.249,VALID,0,VALID,82.1685,VALID,306.691,VALID,22.4126,VALID,149,VALID,1.27123,
2002-09-04, 09:08:00,VALID,919.263,VALID,0,VALID,81.1691,VALID,302.31,VALID,22.4093,VALID,140,VALID,1.54021,
2002-09-04, 09:09:00,VALID,919.255,VALID,0,VALID,82.6098,VALID,301.614,VALID,22.4287,VALID,137,VALID,1.24198,
2002-09-04, 09:10:00,VALID,919.262,VALID,0,VALID,80.93,VALID,304.84,VALID,22.4384,VALID,145,VALID,1.44351,
2002-09-04, 09:11:00,VALID,919.276,VALID,0,VALID,80.1492,VALID,311.344,VALID,22.4452,VALID,149,VALID,1.12283,
2002-09-04, 09:12:00,VALID,919.293,VALID,0,VALID,78.9679,VALID,322.687,VALID,22.4608,VALID,144,VALID,1.24063,
2002-09-04, 09:13:00,VALID,919.31,VALID,0,VALID,80.4646,VALID,331.296,VALID,22.5095,VALID,148,VALID,0.914679,
2002-09-04, 09:14:00,VALID,919.333,VALID,0,VALID,78.6437,VALID,341.892,VALID,22.5548,VALID,143,VALID,1.59601,
2002-09-04, 09:15:00,VALID,919.334,VALID,0,VALID,79.797,VALID,352.03,VALID,22.561,VALID,142,VALID,1.34375,
2002-09-04, 09:16:00,VALID,919.351,VALID,0,VALID,80.8486,VALID,359.009,VALID,22.5965,VALID,148,VALID,1.48097,
2002-09-04, 09:17:00,VALID,919.34,VALID,0,VALID,79.3825,VALID,364.239,VALID,22.5865,VALID,140,VALID,1.8756,
2002-09-04, 09:18:00,VALID,919.342,VALID,0,VALID,80.0399,VALID,368.263,VALID,22.5351,VALID,141,VALID,1.3604,
2002-09-04, 09:19:00,VALID,919.335,VALID,0,VALID,79.9127,VALID,371.303,VALID,22.5313,VALID,139,VALID,1.29455,
2002-09-04, 09:20:00,VALID,919.332,VALID,0,VALID,82.9124,VALID,372.169,VALID,22.6256,VALID,143,VALID,0.695313,
2002-09-04, 09:21:00,VALID,919.313,VALID,0,VALID,80.958,VALID,373.612,VALID,22.6956,VALID,145,VALID,1.38982,
2002-09-04, 09:22:00,VALID,919.305,VALID,0,VALID,82.7026,VALID,382.476,VALID,22.7282,VALID,155,VALID,1.4963,
2002-09-04, 09:23:00,VALID,919.311,VALID,0,VALID,83.1235,VALID,385.906,VALID,22.7605,VALID,146,VALID,1.40728,
2002-09-04, 09:24:00,VALID,919.307,VALID,0,VALID,84.0721,VALID,393.684,VALID,22.7769,VALID,126,VALID,1.11305,
2002-09-04, 09:25:00,VALID,919.308,VALID,0,VALID,83.725,VALID,388.572,VALID,22.7963,VALID,141,VALID,0.967905,
2002-09-04, 09:26:00,VALID,919.313,VALID,0,VALID,83.5584,VALID,378.995,VALID,22.8839,VALID,123,VALID,0.710248,
2002-09-04, 09:27:00,VALID,919.31,VALID,0,VALID,82.7586,VALID,374.886,VALID,22.9612,VALID,118,VALID,0.849826,
2002-09-04, 09:28:00,VALID,919.31,VALID,0,VALID,82.0872,VALID,371.099,VALID,22.9935,VALID,97,VALID,1.33714,
2002-09-04, 09:29:00,VALID,919.31,VALID,0,VALID,83.0968,VALID,362.694,VALID,22.9709,VALID,121,VALID,1.14063,
2002-09-04, 09:30:00,VALID,919.308,VALID,0,VALID,82.7281,VALID,352.59,VALID,23.0167,VALID,114,VALID,1.29317,
2002-09-04, 09:31:00,VALID,919.313,VALID,0,VALID,82.2258,VALID,348.09,VALID,22.9682,VALID,113,VALID,1.40491,
2002-09-04, 09:32:00,VALID,919.305,VALID,0,VALID,80.8575,VALID,348.718,VALID,22.8898,VALID,131,VALID,1.28652,
2002-09-04, 09:33:00,VALID,919.311,VALID,0,VALID,82.0147,VALID,353.235,VALID,22.9156,VALID,163,VALID,1.08943,
2002-09-04, 09:34:00,VALID,919.314,VALID,0,VALID,81.857,VALID,362.524,VALID,22.9929,VALID,144,VALID,1.38682,
2002-09-04, 09:35:00,VALID,919.308,VALID,0,VALID,82.0859,VALID,374.682,VALID,23.0155,VALID,149,VALID,1.64343,
2002-09-04, 09:36:00,VALID,919.302,VALID,0,VALID,82.6187,VALID,391.391,VALID,23.0387,VALID,153,VALID,1.14886,
2002-09-04, 09:37:00,VALID,919.298,VALID,0,VALID,82.7827,VALID,412.515,VALID,23.0993,VALID,133,VALID,0.739443,
2002-09-04, 09:38:00,VALID,919.302,VALID,0,VALID,84.6812,VALID,462.337,VALID,23.2518,VALID,144,VALID,0.953711,
2002-09-04, 09:39:00,VALID,919.279,VALID,0,VALID,83.5292,VALID,546.919,VALID,23.377,VALID,137,VALID,0.774009,
2002-09-04, 09:40:00,VALID,919.278,VALID,0,VALID,82.4025,VALID,503.872,VALID,23.4545,VALID,142,VALID,1.64527,
2002-09-04, 09:41:00,VALID,919.263,VALID,0,VALID,82.1317,VALID,512.702,VALID,23.4222,VALID,131,VALID,1.22656,
2002-09-04, 09:42:00,VALID,919.26,VALID,0,VALID,81.5912,VALID,551.996,VALID,23.4087,VALID,141,VALID,1.321,
2002-09-04, 09:43:00,VALID,919.242,VALID,0,VALID,82.0007,VALID,586.382,VALID,23.4678,VALID,150,VALID,1.61198,
2002-09-04, 09:44:00,VALID,919.226,VALID,0,VALID,80.4303,VALID,619.732,VALID,23.4736,VALID,143,VALID,1.77137,
2002-09-04, 09:45:00,VALID,919.22,VALID,0,VALID,81.5836,VALID,729.921,VALID,23.4445,VALID,147,VALID,1.90562,
2002-09-04, 09:46:00,VALID,919.202,VALID,0,VALID,81.9295,VALID,844.66,VALID,23.5118,VALID,180,VALID,0.474359,
2002-09-04, 09:47:00,VALID,919.193,VALID,0,VALID,81.9803,VALID,832.689,VALID,23.804,VALID,157,VALID,1.15842,
2002-09-04, 09:48:00,VALID,919.195,VALID,0,VALID,80.4977,VALID,902.361,VALID,24.0455,VALID,127,VALID,1.31094,
2002-09-04, 09:49:00,VALID,919.18,VALID,0,VALID,79.2451,VALID,805.146,VALID,24.2007,VALID,142,VALID,1.36986,
2002-09-04, 09:50:00,VALID,919.174,VALID,0,VALID,78.5559,VALID,849.67,VALID,24.2712,VALID,139,VALID,1.56949,
2002-09-04, 09:51:00,VALID,919.18,VALID,0,VALID,79.7487,VALID,828.478,VALID,24.3556,VALID,140,VALID,1.15587,
2002-09-04, 09:52:00,VALID,919.176,VALID,0,VALID,78.0473,VALID,716.948,VALID,24.4943,VALID,133,VALID,1.16807,
2002-09-04, 09:53:00,VALID,919.171,VALID,0,VALID,72.4598,VALID,767.551,VALID,24.5678,VALID,147,VALID,1.38582,
2002-09-04, 09:54:00,VALID,919.183,VALID,0,VALID,73.3156,VALID,785.448,VALID,24.6583,VALID,146,VALID,1.45765,
2002-09-04, 09:55:00,VALID,919.18,VALID,0,VALID,75.4786,VALID,682.765,VALID,24.7097,VALID,140,VALID,1.52259,
2002-09-04, 09:56:00,VALID,919.188,VALID,0,VALID,74.9395,VALID,746.274,VALID,24.7356,VALID,161,VALID,1.03289,
2002-09-04, 09:57:00,VALID,919.198,VALID,0,VALID,75.1874,VALID,744.575,VALID,24.8908,VALID,83,VALID,0.801282,
2002-09-04, 09:58:00,VALID,919.19,VALID,0,VALID,73.9349,VALID,698.473,VALID,25.1036,VALID,135,VALID,0.723684,
2002-09-04, 09:59:00,VALID,919.189,VALID,0,VALID,72.0962,VALID,762.117,VALID,25.2717,VALID,120,VALID,1.2905,
2002-09-04, 10:00:00,VALID,919.182,VALID,0,VALID,73.9578,VALID,747.462,VALID,25.2814,VALID,57,VALID,1.19049,
2002-09-04, 10:01:00,VALID,919.164,VALID,0,VALID,72.1356,VALID,752.404,VALID,25.2323,VALID,103,VALID,1.11677,
2002-09-04, 10:02:00,VALID,919.167,VALID,0,VALID,66.2086,VALID,745.323,VALID,25.2941,VALID,181,VALID,1.12799,
2002-09-04, 10:03:00,VALID,919.152,VALID,0,VALID,66.3739,VALID,728.97,VALID,25.4551,VALID,188,VALID,0.771701,
2002-09-04, 10:04:00,VALID,919.154,VALID,0,VALID,66.9818,VALID,728.121,VALID,25.6194,VALID,166,VALID,1.56871,
2002-09-04, 10:05:00,VALID,919.168,VALID,0,VALID,67.6926,VALID,684.871,VALID,25.7009,VALID,152,VALID,1.03973,
2002-09-04, 10:06:00,VALID,919.175,VALID,0,VALID,65.5614,VALID,729.361,VALID,25.775,VALID,172,VALID,0.687706,
2002-09-04, 10:07:00,VALID,919.191,VALID,0,VALID,64.7221,VALID,746.341,VALID,25.9422,VALID,203,VALID,0.233259,
2002-09-04, 10:08:00,VALID,919.203,VALID,0,VALID,64.8099,VALID,694.125,VALID,26.1097,VALID,53,VALID,0.600195,
2002-09-04, 10:09:00,VALID,919.188,VALID,0,VALID,64.8328,VALID,658.041,VALID,26.1964,VALID,125,VALID,0.63014,
2002-09-04, 10:10:00,VALID,919.2,VALID,0,VALID,64.2364,VALID,706.929,VALID,26.2789,VALID,127,VALID,0.560497,
2002-09-04, 10:11:00,VALID,919.186,VALID,0,VALID,62.554,VALID,657.651,VALID,26.2892,VALID,137,VALID,1.25,
2002-09-04, 10:12:00,VALID,919.179,VALID,0,VALID,63.8498,VALID,519.121,VALID,26.1589,VALID,146,VALID,1.01731,
2002-09-04, 10:13:00,VALID,919.165,VALID,0,VALID,63.1708,VALID,509.068,VALID,26.0971,VALID,145,VALID,0.506334,
2002-09-04, 10:14:00,VALID,919.174,VALID,0,VALID,62.2438,VALID,517.712,VALID,26.1204,VALID,176,VALID,0.528516,
2002-09-04, 10:15:00,VALID,919.167,VALID,0,VALID,58.4048,VALID,770.539,VALID,26.155,VALID,159,VALID,0.761624,
2002-09-04, 10:16:00,VALID,919.164,VALID,0,VALID,59.5696,VALID,542.164,VALID,26.2876,VALID,160,VALID,0.159206,
2002-09-04, 10:17:00,VALID,919.17,VALID,0,VALID,59.0597,VALID,639.617,VALID,26.4325,VALID,124,VALID,0.221284,
2002-09-04, 10:18:00,VALID,919.143,VALID,0,VALID,61.079,VALID,671.099,VALID,26.6298,VALID,32,VALID,0.373162,
2002-09-04, 10:19:00,VALID,919.14,VALID,0,VALID,60.2855,VALID,691.086,VALID,26.8562,VALID,68,VALID,0.397837,
2002-09-04, 10:20:00,VALID,919.131,VALID,0,VALID,62.2883,VALID,804.569,VALID,26.9957,VALID,145,VALID,0.261259,
2002-09-04, 10:21:00,VALID,919.106,VALID,0,VALID,63.6832,VALID,755.324,VALID,27.2497,VALID,148,VALID,0.657095,
2002-09-04, 10:22:00,VALID,919.104,VALID,0,VALID,59.4755,VALID,751.724,VALID,27.3217,VALID,136,VALID,0.897636,
2002-09-04, 10:23:00,VALID,919.073,VALID,0,VALID,58.2726,VALID,769.011,VALID,27.2635,VALID,122,VALID,0.60178,
2002-09-04, 10:24:00,VALID,919.051,VALID,0,VALID,58.3946,VALID,762.219,VALID,27.2204,VALID,101,VALID,0.308594,
2002-09-04, 10:25:00,VALID,919.033,VALID,0,VALID,60.2054,VALID,730.889,VALID,27.1949,VALID,67,VALID,0.144737,
2002-09-04, 10:26:00,VALID,919.016,VALID,0,VALID,57.371,VALID,734.879,VALID,27.0622,VALID,269,VALID,1.09827,
2002-09-04, 10:27:00,VALID,918.99,VALID,0,VALID,56.8979,VALID,747.513,VALID,26.554,VALID,235,VALID,1.22199,
2002-09-04, 10:28:00,VALID,918.974,VALID,0,VALID,57.46,VALID,757.039,VALID,26.4308,VALID,220,VALID,1.08373,
2002-09-04, 10:29:00,VALID,918.956,VALID,0,VALID,56.5216,VALID,767.89,VALID,26.434,VALID,235,VALID,1.07512,
2002-09-04, 10:30:00,VALID,918.95,VALID,0,VALID,56.8992,VALID,778.248,VALID,26.2727,VALID,251,VALID,0.872944,
2002-09-04, 10:31:00,VALID,918.939,VALID,0,VALID,55.4356,VALID,766.905,VALID,26.2461,VALID,223,VALID,0.793497,
2002-09-04, 10:32:00,VALID,918.93,VALID,0,VALID,54.7388,VALID,761.471,VALID,26.4078,VALID,215,VALID,0.440173,
2002-09-04, 10:33:00,VALID,918.922,VALID,0,VALID,53.5969,VALID,665.343,VALID,26.6075,VALID,209,VALID,0.546074,
2002-09-04, 10:34:00,VALID,918.922,VALID,0,VALID,52.6724,VALID,699.339,VALID,26.7977,VALID,156,VALID,0.346834,
2002-09-04, 10:35:00,VALID,918.91,VALID,0,VALID,54.8481,VALID,740.313,VALID,26.9597,VALID,58,VALID,0.76028,
2002-09-04, 10:36:00,VALID,918.888,VALID,0,VALID,55.9977,VALID,805.248,VALID,27.0043,VALID,3,VALID,0.491039,
2002-09-04, 10:37:00,VALID,918.876,VALID,0,VALID,56.2265,VALID,796.724,VALID,27.0493,VALID,216,VALID,0.903716,
2002-09-04, 10:38:00,VALID,918.859,VALID,0,VALID,58.1479,VALID,774.309,VALID,26.9917,VALID,283,VALID,0.795496,
2002-09-04, 10:39:00,VALID,918.863,VALID,0,VALID,57.6596,VALID,792.58,VALID,26.9975,VALID,319,VALID,0.922092,
2002-09-04, 10:40:00,VALID,918.85,VALID,0,VALID,55.0859,VALID,815.521,VALID,26.8624,VALID,326,VALID,1.15325,
2002-09-04, 10:41:00,VALID,918.831,VALID,0,VALID,57.521,VALID,820.565,VALID,26.9044,VALID,355,VALID,0.699777,